Beja current weather conditions

sailwx.info

Wind from 310 at 7 knots

Air temperature 14.0° C
Dewpoint 10.0° C

Last reported at 2015-Mar-31 22:00 UTC.
Time now 2015-Mar-31 23:51 UTC

Location: N 38°05' W 007°56'.
View on Google Maps.

See reports from other nearby stations

  
Tides and Currents Weather Stations Pressure Air Temp Water Temp Dewpoint Dewpoint Depression Visibility Wind Speed Wind Dir Waves Ship Positions
date/time (UTC)wind fromknots sea level pressurealtimeterstation pressurevisibilityair tempwater tempwave heightnotes
2015-Mar-31 22:00 310 7 14.0
2015-Mar-31 21:00 320 8 17.0
2015-Mar-31 20:00 330 8 20.0
2015-Mar-31 19:00 350 9 21.0
2015-Mar-31 18:00 360 9 25.0
2015-Mar-31 17:00 350 10 26.0
2015-Mar-31 16:00 360 8 26.0
2015-Mar-31 15:00 350 9 26.0
2015-Mar-31 14:00 360 10 25.0
2015-Mar-31 13:00 360 10 24.0
2015-Mar-31 12:00 350 10 22.0
2015-Mar-31 11:00 310 7 19.0
2015-Mar-31 10:00 310 11 16.0
2015-Mar-31 09:00 300 6 5.413.0 Fog in the vicinity.
2015-Mar-31 08:00 310 10 4.3 9.0 Patches of fog.
2015-Mar-31 07:29 310 9 2.7 8.0 Patches of fog.
2015-Mar-31 07:00 290 7 0.2 7.0 Fog.
2015-Mar-31 06:33 290 7 0.2 7.0 Fog.
2015-Mar-31 06:00 300 7 4.9 8.0 Patches of fog.
2015-Mar-31 05:00 320 6 5.4 8.0 Fog in the vicinity.
2015-Mar-31 04:00 310 7 4.9 8.0 Fog in the vicinity.
2015-Mar-31 03:00 300 6 9.0
2015-Mar-31 02:00 310 7 9.0
2015-Mar-31 01:00 300 7 10.0
2015-Mar-31 00:00 310 10 12.0
2015-Mar-30 23:00 300 11 14.0
2015-Mar-30 22:00 300 9 15.0
2015-Mar-30 21:00 300 8 17.0
2015-Mar-30 20:00 310 6 18.0
2015-Mar-30 19:00 340 8 21.0
2015-Mar-30 18:00 340 10 24.0
2015-Mar-30 17:00 330 11 25.0
2015-Mar-30 16:00 330 12 26.0
2015-Mar-30 15:00 350 13 26.0
2015-Mar-30 14:00 350 10 25.0
2015-Mar-30 13:00 340 10 23.0
2015-Mar-30 12:00 320 8 19.0
2015-Mar-30 11:00 320 8 17.0
2015-Mar-30 10:00 310 8 14.0
2015-Mar-30 09:00 310 7 12.0
2015-Mar-30 08:00 320 9 9.0
2015-Mar-30 07:00 290 6 3.8 7.0 Patches of fog.
2015-Mar-30 06:00 300 7 4.3 7.0 Patches of fog.
2015-Mar-30 05:00 310 6 8.0
2015-Mar-30 04:00 300 6 8.0
2015-Mar-30 03:00 310 9 9.0
2015-Mar-30 02:00 320 11 9.0
2015-Mar-30 01:00 320 8 10.0
2015-Mar-30 00:00 310 9 10.0
2015-Mar-29 23:00 300 10 11.0